Flag for United Arab Emirates Weather past 2 weeks in Dubai, Dubai, United Arab Emirates

Now
99 °F

Passing clouds.


Feels Like: 118 °F
Forecast: 89 / 102 °F
Wind: 13 mph from West

Location: Dubai International Airport

Current Time: Jul 22, 2014 at 6:22:02 PM

Latest Report: Jul 22, 2014 at 6:00 PM


Visibility: N/A

Pressure: 29.42 "Hg

Humidity: 53%

Dew point: 79 °F

Location of DubaiLocation

Historic Weather in Dubai — Graph

°F

Dubai temperature yesterday

Maximum temperature yesterday: 104 °F (at 11:00 AM)
Minimum temperature yesterday: 91 °F (at 5:00 AM)
Average temperature yesterday: 97 °F

Past Weeks' High & Low Weather Summary

 TemperatureHumidityPressure
High109 °F (Jul 14, 12:00 PM)94% (Jul 11, 5:00 AM)29.53 "Hg (Jul 11, 5:00 AM)
Low84 °F (Jul 11, 7:00 AM)19% (Jul 20, 11:00 AM)29.33 "Hg (Jul 18, 5:00 PM)
Average96 °F57%29.44 "Hg
* Reported Jul 7 5:00 PM — Jul 22 5:00 PM, Dubai, Weather by CustomWeather, © 2014

Note: Actual official high and low records may vary slightly from our data, if they occured in-between our weather recording intervals... More about our weather records

Advertising

Dubai weather history for previous 24 hours

 ConditionsComfort  
Time TempWeatherWind HumidityBarometerVisibility
5:00 PM
Jul 22
102 °FPassing clouds.10 mph42%29.39 "HgN/A
4:00 PM102 °FPassing clouds.10 mph35%29.42 "HgN/A
3:00 PM100 °FPassing clouds.14 mph50%29.42 "HgN/A
2:00 PM100 °FPassing clouds.15 mph50%29.42 "HgN/A
1:00 PM102 °FSunny.12 mph42%29.45 "Hg10 mi
12:00 PM102 °FPassing clouds.10 mph37%29.45 "HgN/A
11:01 AM102 °FSunny.12 mph33%29.47 "Hg10 mi
11:00 AM100 °FPassing clouds.7 mph37%29.47 "HgN/A
10:00 AM97 °FPassing clouds.7 mph44%29.47 "HgN/A
9:00 AM95 °FPassing clouds.8 mph53%29.47 "HgN/A
8:00 AM91 °FSunny.9 mph67%29.47 "Hg10 mi
7:00 AM88 °FClear.9 mph79%29.45 "Hg5 mi
6:00 AM88 °FClear.9 mph84%29.45 "Hg5 mi
5:00 AM91 °FClear.6 mph71%29.42 "Hg10 mi
4:00 AM91 °FPassing clouds.8 mph75%29.42 "HgN/A
3:00 AM90 °FPassing clouds.7 mph84%29.42 "HgN/A
2:00 AM91 °FPassing clouds.7 mph75%29.42 "HgN/A
1:00 AM91 °FClear.7 mph75%29.42 "Hg10 mi
12:00 AM93 °FClear.6 mph71%29.45 "Hg10 mi
11:00 PM
Jul 21
95 °FPassing clouds.5 mph63%29.45 "HgN/A
10:00 PM95 °FClear.8 mph60%29.45 "Hg10 mi
9:00 PM95 °FClear.9 mph63%29.45 "Hg10 mi
8:00 PM97 °FPassing clouds.5 mph60%29.45 "HgN/A
7:00 PM99 °FPassing clouds.10 mph57%29.42 "HgN/A
6:00 PM99 °FClear.15 mph60%29.42 "Hg6 mi
Weather by CustomWeather, © 2014

See weather overviewHow to use our weather pages